Temp
84 85 81 74 65 70 64 66 75 72 72 79 81 77 73 72 69 67 82 84 85 86 86 86 82 82 82 82 82 83 83 83 82 83 83 83 82 83 82 83 83 84 83 83 84 83 83 83 82
86 82 77 68 61 62 63 72 71 75 79 81 79 77 73 67 73 75 79 83 86 86 88 87 81 82 83 82 83 82 83 83 83 82 83 83 83 83 83 83 83 83 82 83 82 83 83 83 83
84 82 67 68 64 59 63 72 74 78 80 78 74 79 73 68 75 78 83 84 86 84 86 84 82 82 82 83 83 83 83 83 83 83 83 83 83 83 84 83 82 82 83 82 83 83 83 83 84
81 77 71 60 62 65 68 73 77 77 78 78 77 70 75 81 79 81 84 85 85 86 87 84 83 83 83 83 83 83 83 83 83 83 83 83 83 84 84 83 83 84 83 82 82 83 84 84 83
81 76 62 58 63 68 75 77 78 76 75 75 76 68 70 77 82 83 83 85 85 87 88 86 82 83 83 83 83 83 83 83 83 83 84 84 84 84 84 84 84 84 84 83 83 84 84 84 83
73 73 61 58 61 69 74 78 76 75 75 74 73 73 71 79 80 82 85 85 87 86 87 87 83 83 83 83 83 83 83 83 83 83 83 83 83 84 84 84 84 84 84 84 84 84 84 83 83
68 64 62 60 61 65 68 78 75 75 75 73 79 71 70 74 81 83 84 85 86 86 86 86 87 85 84 83 84 83 83 83 83 83 84 84 84 84 84 84 85 85 85 84 84 84 83 83 83
70 70 61 59 59 62 70 75 78 75 71 81 82 68 66 73 78 82 83 84 85 85 85 84 84 86 87 87 84 84 83 83 83 83 83 83 84 84 83 83 85 85 85 85 84 84 84 83 83
76 63 61 60 59 63 70 72 78 80 76 78 79 78 80 78 80 81 79 79 79 82 84 86 86 85 84 82 86 84 83 83 83 83 81 83 87 87 88 84 85 85 85 85 85 84 83 83 83
75 67 66 71 65 65 70 73 74 74 74 71 73 77 78 79 79 77 78 78 79 78 81 83 84 86 86 86 84 84 80 83 84 84 84 85 84 84 86 83 82 83 82 83 83 83 83 86 90
75 68 71 71 70 70 69 72 79 75 70 74 73 73 77 78 78 78 79 79 80 79 82 83 83 84 85 84 85 84 86 86 84 83 84 84 85 85 84 86 87 86 84 90 90 90 91 89 90
71 74 75 72 72 70 67 74 73 75 75 81 80 78 77 77 78 80 80 80 79 77 81 81 82 81 82 84 84 85 86 86 87 86 83 84 87 84 84 86 86 85 87 86 87 90 88 89 88
73 71 73 74 71 70 68 70 70 75 79 81 79 78 77 79 79 81 83 83 81 79 81 81 81 81 82 81 84 84 84 86 86 86 85 86 86 84 85 84 86 86 88 90 88 89 89 89 90
74 72 72 72 71 69 66 65 66 74 79 77 77 77 78 79 80 80 81 80 80 81 81 82 82 81 82 82 81 83 84 85 86 86 86 83 86 85 87 86 87 87 89 90 89 88 89 89 90
75 69 71 70 71 67 66 60 62 75 78 76 76 77 78 79 81 80 82 81 82 82 82 82 82 82 81 82 83 84 85 86 86 87 85 85 84 84 82 86 87 87 87 87 88 87 89 90 91
71 71 64 64 68 65 63 55 65 72 76 76 76 76 77 78 81 82 82 83 83 83 81 82 85 83 82 82 83 85 86 86 86 86 87 86 85 83 83 87 86 85 88 89 90 90 89 90 90
68 62 63 61 68 65 62 57 64 69 74 75 76 77 78 79 81 82 84 84 83 83 82 82 83 83 82 81 83 84 82 84 84 86 86 84 84 83 85 86 85 84 88 88 90 87 89 88 88
63 63 63 60 61 66 64 58 63 66 69 74 77 77 78 79 81 83 84 85 84 84 83 82 83 82 81 82 81 83 83 84 85 85 86 84 86 84 86 85 86 88 89 89 88 85 86 87 86
70 67 62 60 65 61 57 60 62 64 66 70 74 78 79 81 84 84 84 84 84 84 82 82 81 80 81 81 80 81 82 82 84 84 83 83 84 84 84 87 87 88 88 86 86 87 85 86 86
70 66 61 63 66 66 58 59 65 63 65 70 76 78 80 81 82 81 82 83 83 82 82 81 81 80 80 82 82 84 83 84 86 85 84 84 85 85 86 84 87 84 88 86 86 87 88 87 84
69 66 63 65 65 66 63 57 61 63 65 66 74 79 82 81 81 81 81 82 83 81 81 81 80 80 81 81 81 80 82 82 83 83 84 86 84 86 85 85 86 85 88 88 86 86 85 86 84
66 72 69 65 64 57 63 50 59 60 61 65 69 79 81 82 83 84 83 82 83 83 83 82 81 80 81 81 81 78 82 81 84 85 85 86 85 85 86 85 85 84 88 85 86 88 86 86 86
67 72 69 66 63 60 59 57 63 65 59 61 70 73 81 84 83 84 84 84 85 85 83 83 81 80 81 80 81 83 82 82 85 84 82 83 83 84 86 86 85 85 89 86 85 86 84 88 87
72 68 66 65 61 53 58 58 59 61 64 68 67 73 79 83 83 85 85 86 85 86 84 84 80 79 80 80 80 80 81 81 83 83 83 84 86 86 85 85 85 85 86 86 87 86 85 86 85
70 68 54 54 53 51 61 53 62 73 73 75 68 76 79 82 83 83 82 82 83 83 83 83 80 78 79 80 81 81 81 81 80 80 83 84 85 86 84 84 84 86 85 86 86 85 85 86 87
68 70 61 48 47 52 60 55 66 75 80 78 79 76 76 81 82 82 82 83 83 83 82 82 80 79 80 80 80 80 81 84 84 83 86 86 87 87 85 85 85 85 86 85 85 87 88 86 88
65 62 70 61 59 54 58 64 73 76 74 71 76 76 77 80 82 81 83 85 84 83 82 82 81 79 80 81 80 80 80 81 83 82 83 86 84 87 85 85 85 85 85 85 84 86 85 85 85
71 75 61 63 51 48 54 58 63 69 72 68 73 72 80 81 82 82 83 83 84 85 84 83 82 80 81 82 81 82 81 81 81 82 81 82 84 83 84 84 84 85 85 84 83 85 85 84 87
68 67 67 68 63 56 53 59 66 66 68 72 71 73 79 81 81 78 82 83 83 84 84 83 82 81 81 82 82 81 81 82 81 82 82 82 82 82 82 83 84 84 84 84 82 83 84 83 84
70 68 69 63 59 59 59 62 67 66 68 72 72 74 77 82 83 81 82 82 82 80 81 81 82 82 82 83 81 81 82 82 82 81 82 82 82 82 83 83 82 83 84 83 82 83 86 83 83
MSLP
1011.41 1011.36 1011.60 1011.47 1011.39 1010.34 1010.13 1010.28 1010.03 1010.39 1011.11 1011.39 1011.90 1012.13 1013.11 1013.79 1014.02 1014.70 1015.42 1015.64 1015.76 1016.01 1016.41 1016.66 1016.87 1016.99 1016.98 1017.01 1017.14 1017.22 1017.35 1017.49 1017.68 1017.70 1017.79 1017.87 1018.00 1018.17 1018.34 1018.34 1018.37 1018.35 1018.44 1018.38 1018.40 1018.45 1018.46 1018.50 1018.63
1011.17 1011.44 1011.55 1011.25 1011.02 1010.25 1010.40 1010.13 1009.89 1010.29 1010.76 1011.53 1012.11 1012.55 1013.26 1014.22 1014.80 1015.22 1015.50 1015.96 1015.91 1016.18 1016.47 1016.75 1017.12 1017.20 1017.21 1017.32 1017.38 1017.55 1017.61 1017.78 1017.91 1018.07 1018.11 1018.26 1018.34 1018.46 1018.50 1018.54 1018.65 1018.84 1019.05 1018.80 1018.76 1018.59 1018.72 1018.58 1018.74
1011.22 1011.28 1011.38 1011.03 1010.96 1010.84 1010.51 1010.31 1010.11 1010.57 1011.27 1011.72 1012.43 1013.02 1013.75 1014.67 1015.23 1015.37 1015.73 1016.09 1016.20 1016.59 1016.86 1017.16 1017.33 1017.44 1017.54 1017.63 1017.73 1017.84 1017.97 1018.13 1018.21 1018.32 1018.42 1018.50 1018.59 1018.71 1018.77 1018.89 1019.10 1019.09 1019.17 1019.18 1019.14 1019.11 1018.94 1018.92 1018.78
1011.02 1011.27 1011.43 1011.34 1011.25 1011.57 1010.92 1010.67 1010.38 1010.88 1011.71 1012.16 1012.64 1013.60 1014.65 1014.92 1015.35 1015.70 1016.08 1016.18 1016.49 1016.74 1016.93 1017.37 1017.50 1017.67 1017.77 1017.92 1018.04 1018.18 1018.38 1018.42 1018.55 1018.78 1018.72 1018.80 1018.89 1018.96 1019.03 1019.30 1019.30 1019.18 1019.52 1019.50 1019.51 1019.35 1019.21 1018.91 1019.06
1010.92 1011.08 1011.66 1012.01 1012.02 1011.82 1011.28 1011.15 1011.04 1011.12 1011.85 1012.49 1012.85 1014.11 1014.86 1015.68 1015.82 1016.16 1016.41 1016.54 1016.69 1016.90 1017.10 1017.42 1017.75 1017.89 1018.06 1018.21 1018.28 1018.48 1018.62 1018.69 1018.85 1019.00 1019.03 1019.05 1019.16 1019.28 1019.33 1019.41 1019.48 1019.46 1019.52 1019.53 1019.63 1019.46 1019.47 1019.47 1019.72
1010.87 1011.18 1011.87 1012.26 1012.38 1012.02 1011.68 1011.40 1011.51 1011.77 1012.35 1012.98 1013.52 1014.03 1015.48 1016.07 1016.19 1016.48 1016.72 1016.83 1016.92 1017.14 1017.35 1017.65 1017.96 1018.05 1018.25 1018.35 1018.60 1018.81 1018.85 1019.03 1019.17 1019.21 1019.33 1019.44 1019.69 1019.60 1019.64 1019.58 1019.65 1019.65 1019.79 1019.77 1019.83 1019.85 1019.81 1019.92 1020.11
1011.30 1011.61 1012.27 1012.39 1012.64 1012.42 1012.32 1011.97 1011.70 1011.98 1012.51 1013.04 1013.51 1014.07 1016.00 1016.33 1016.56 1016.78 1017.02 1017.20 1017.27 1017.45 1017.70 1017.94 1018.05 1018.28 1018.46 1018.68 1018.81 1018.97 1019.15 1019.47 1019.52 1019.54 1019.62 1019.70 1019.79 1019.87 1019.90 1019.88 1019.90 1019.90 1019.90 1019.97 1020.08 1020.12 1020.10 1020.24 1020.29
1011.37 1011.79 1012.46 1013.03 1013.05 1012.93 1012.71 1012.19 1012.32 1012.39 1013.03 1013.41 1013.59 1014.23 1015.56 1016.30 1016.95 1017.12 1017.37 1017.56 1017.69 1017.72 1018.06 1018.36 1018.55 1018.55 1018.58 1018.72 1019.07 1019.18 1019.43 1019.61 1019.50 1019.74 1019.76 1019.95 1020.05 1020.20 1020.28 1020.18 1020.20 1020.18 1020.15 1020.21 1020.28 1020.35 1020.35 1020.33 1020.37
1011.36 1011.90 1012.37 1012.86 1013.23 1013.21 1012.95 1012.59 1012.66 1012.82 1013.06 1013.40 1013.68 1014.12 1015.00 1016.26 1016.88 1017.15 1017.55 1017.77 1018.05 1018.28 1018.39 1018.45 1018.57 1018.78 1018.91 1019.22 1019.24 1019.46 1019.75 1019.86 1019.97 1020.13 1020.28 1020.25 1020.20 1020.31 1020.18 1020.50 1020.43 1020.37 1020.41 1020.46 1020.49 1020.51 1020.60 1020.58 1020.60
1010.99 1011.49 1011.88 1012.39 1013.15 1013.51 1013.20 1012.91 1012.80 1012.96 1013.20 1013.87 1014.21 1015.13 1015.90 1016.37 1016.83 1016.99 1017.25 1017.58 1018.05 1018.47 1018.75 1018.80 1018.84 1018.84 1019.11 1019.32 1019.64 1019.83 1020.20 1020.21 1020.36 1020.44 1020.53 1020.56 1020.57 1020.57 1020.53 1020.67 1020.71 1020.68 1020.65 1020.61 1020.58 1020.61 1020.66 1020.52 1020.38
1010.90 1011.14 1011.85 1012.61 1013.05 1013.66 1013.44 1013.36 1013.00 1013.11 1013.40 1013.62 1013.68 1014.95 1015.93 1016.40 1016.76 1017.02 1017.21 1017.63 1017.95 1018.66 1018.80 1019.05 1019.09 1019.32 1019.31 1019.60 1019.77 1020.07 1020.10 1020.23 1020.54 1020.71 1020.74 1020.73 1020.81 1020.74 1020.76 1020.68 1020.58 1020.65 1020.67 1020.34 1020.26 1020.21 1020.24 1020.34 1020.34
1010.73 1011.42 1011.73 1012.63 1013.11 1013.58 1013.92 1013.75 1013.40 1013.54 1013.43 1013.64 1014.42 1014.90 1015.79 1016.26 1016.48 1016.74 1017.02 1017.64 1018.15 1018.72 1018.81 1019.24 1019.37 1019.67 1019.68 1019.87 1019.95 1020.03 1020.07 1020.31 1020.43 1020.70 1020.84 1020.83 1020.53 1020.76 1020.84 1020.79 1020.82 1020.76 1020.69 1020.50 1020.33 1020.16 1020.27 1020.28 1020.46
1010.81 1011.65 1011.96 1012.73 1013.31 1013.73 1014.44 1014.31 1014.25 1013.76 1013.71 1014.22 1015.00 1015.55 1015.84 1016.14 1016.54 1016.71 1017.02 1017.62 1018.19 1018.50 1018.85 1019.21 1019.50 1019.72 1019.84 1019.95 1020.02 1020.20 1020.39 1020.41 1020.64 1020.74 1020.90 1020.90 1020.87 1020.96 1021.02 1021.08 1020.81 1020.83 1020.66 1020.38 1020.28 1020.14 1020.26 1020.32 1020.41
1011.20 1011.81 1012.48 1013.14 1013.67 1014.17 1014.49 1015.13 1014.81 1014.43 1014.43 1014.65 1015.14 1015.57 1015.96 1016.10 1016.34 1016.68 1017.05 1017.53 1018.06 1018.41 1018.76 1019.19 1019.54 1019.77 1019.95 1019.97 1020.22 1020.44 1020.52 1020.62 1020.72 1020.88 1021.00 1021.28 1021.12 1021.07 1020.88 1020.85 1020.75 1020.67 1020.64 1020.55 1020.46 1020.41 1020.33 1020.43 1020.54
1011.27 1011.85 1012.53 1013.57 1013.99 1014.80 1015.00 1015.82 1015.39 1014.88 1014.80 1014.86 1015.22 1015.62 1015.93 1016.09 1016.36 1016.59 1016.94 1017.33 1017.93 1018.37 1018.77 1019.21 1019.46 1019.78 1020.07 1020.12 1020.23 1020.37 1020.48 1020.65 1020.78 1020.88 1021.15 1021.24 1021.26 1021.24 1021.25 1021.00 1020.69 1020.77 1020.84 1020.74 1020.65 1020.58 1020.61 1020.45 1020.57
1011.04 1011.58 1012.25 1014.12 1014.26 1015.15 1015.55 1015.51 1015.31 1015.18 1014.84 1014.72 1015.19 1015.61 1015.87 1016.04 1016.21 1016.49 1016.99 1017.32 1017.88 1018.29 1018.79 1019.22 1019.25 1019.68 1020.11 1020.24 1020.30 1020.31 1020.42 1020.65 1020.81 1020.97 1021.16 1021.28 1021.28 1021.56 1021.38 1021.04 1021.01 1021.05 1020.80 1020.72 1020.60 1020.60 1020.68 1020.73 1020.80
1011.21 1011.53 1012.32 1013.87 1014.53 1014.96 1015.65 1015.38 1015.51 1015.57 1014.93 1014.77 1014.95 1015.21 1015.48 1015.79 1015.97 1016.32 1016.70 1017.25 1017.72 1018.32 1018.74 1019.12 1019.50 1019.72 1020.06 1020.34 1020.43 1020.51 1020.69 1020.76 1021.15 1021.14 1021.16 1021.37 1021.57 1021.66 1021.44 1021.37 1021.30 1021.26 1020.89 1020.79 1020.60 1020.88 1020.97 1020.97 1021.06
1010.80 1011.63 1012.66 1013.47 1014.96 1014.98 1015.44 1015.68 1015.42 1015.55 1015.20 1014.67 1014.66 1014.87 1014.95 1015.14 1015.24 1015.87 1016.37 1017.02 1017.64 1018.25 1018.69 1019.13 1019.49 1019.82 1020.08 1020.40 1020.73 1020.79 1020.92 1021.04 1021.17 1021.26 1021.15 1021.53 1021.54 1021.64 1021.60 1021.56 1021.35 1021.07 1020.77 1020.83 1020.89 1021.03 1021.25 1021.31 1021.42
1010.91 1011.44 1012.63 1014.05 1014.61 1015.16 1015.49 1015.93 1015.65 1015.54 1015.48 1015.07 1014.60 1014.45 1014.41 1014.44 1014.90 1015.61 1016.23 1016.90 1017.54 1018.07 1018.56 1018.90 1019.47 1019.84 1020.13 1020.46 1020.72 1020.74 1020.69 1021.03 1021.10 1021.30 1021.48 1021.63 1021.74 1021.69 1021.62 1021.52 1021.45 1021.20 1021.03 1021.09 1021.03 1021.08 1021.29 1021.41 1021.70
1010.86 1011.41 1012.48 1013.77 1014.29 1014.51 1015.04 1015.32 1015.25 1015.54 1015.36 1015.14 1014.42 1014.18 1013.87 1014.22 1014.75 1015.43 1015.96 1016.52 1017.19 1017.72 1018.30 1018.83 1019.39 1019.72 1020.09 1020.17 1020.36 1020.40 1020.66 1020.89 1020.99 1021.34 1021.64 1021.61 1021.76 1021.77 1021.70 1021.81 1021.48 1021.54 1021.26 1021.29 1021.20 1021.09 1021.07 1021.48 1021.78
1010.76 1011.08 1011.94 1012.40 1013.72 1014.44 1014.36 1014.85 1014.91 1015.09 1015.22 1015.25 1014.58 1013.85 1013.51 1013.61 1014.09 1014.83 1015.42 1015.97 1016.67 1017.37 1017.87 1018.50 1019.24 1019.58 1019.90 1020.13 1020.31 1020.53 1020.80 1021.02 1021.20 1021.37 1021.54 1021.43 1021.70 1021.70 1021.70 1021.77 1021.72 1021.66 1021.43 1021.42 1021.42 1021.32 1021.21 1021.26 1021.81
1010.34 1010.85 1011.67 1012.26 1012.76 1013.68 1014.03 1014.39 1013.92 1014.21 1014.57 1014.61 1014.12 1013.31 1013.07 1013.20 1013.68 1014.20 1014.90 1015.52 1015.94 1016.86 1017.58 1018.28 1018.99 1019.50 1019.80 1020.10 1020.14 1020.20 1020.27 1020.60 1020.72 1020.99 1021.32 1021.32 1021.64 1021.79 1021.84 1021.81 1021.78 1021.86 1021.63 1021.66 1021.60 1021.32 1021.48 1021.53 1021.53
1010.47 1010.88 1011.56 1012.18 1012.38 1013.14 1013.90 1013.74 1013.05 1013.45 1013.82 1013.50 1013.20 1012.99 1012.42 1012.61 1013.15 1013.47 1014.15 1014.76 1015.54 1016.45 1017.15 1018.02 1018.70 1019.24 1019.61 1019.93 1019.97 1020.13 1020.35 1020.61 1020.87 1021.14 1021.37 1021.51 1021.71 1021.82 1021.82 1021.85 1021.93 1021.94 1021.64 1021.75 1021.80 1021.76 1021.79 1021.67 1021.63
1011.05 1011.26 1011.80 1012.29 1012.58 1012.84 1013.24 1013.22 1011.94 1012.18 1011.83 1011.95 1012.53 1012.36 1012.07 1012.02 1012.65 1013.09 1014.01 1014.66 1015.33 1016.15 1016.86 1017.61 1018.45 1018.95 1019.38 1019.77 1019.99 1020.05 1020.22 1020.56 1020.78 1021.10 1021.28 1021.42 1021.54 1021.47 1021.67 1021.79 1021.93 1021.94 1021.89 1021.88 1021.76 1021.80 1021.87 1021.82 1021.93
1010.75 1010.62 1011.21 1011.89 1012.36 1012.50 1012.44 1012.49 1010.66 1010.01 1010.25 1010.31 1010.90 1011.30 1011.40 1011.64 1012.19 1012.94 1013.67 1014.25 1014.79 1015.63 1016.42 1017.11 1017.95 1018.56 1019.08 1019.53 1019.81 1019.93 1020.00 1020.30 1020.49 1020.70 1020.99 1021.15 1021.30 1021.37 1021.50 1021.69 1021.79 1021.73 1021.95 1021.98 1021.96 1021.87 1021.88 1021.85 1021.86
1010.30 1010.14 1009.99 1010.52 1011.67 1012.00 1011.98 1011.19 1009.38 1009.31 1008.99 1009.08 1009.35 1010.17 1010.86 1011.16 1011.73 1012.44 1013.03 1013.53 1014.14 1015.06 1015.99 1016.75 1017.48 1018.11 1018.70 1019.21 1019.52 1019.84 1020.00 1020.08 1020.23 1020.51 1020.65 1020.82 1020.85 1020.92 1021.14 1021.30 1021.45 1021.59 1021.67 1021.81 1021.95 1021.76 1021.71 1021.77 1021.88
1010.26 1010.20 1009.90 1010.25 1011.27 1011.30 1010.80 1010.31 1009.19 1008.57 1008.35 1008.96 1008.92 1009.64 1010.09 1010.63 1011.19 1011.77 1012.50 1013.09 1013.77 1014.62 1015.35 1016.05 1016.77 1017.47 1018.18 1018.72 1019.27 1019.63 1019.96 1020.16 1020.13 1020.33 1020.57 1020.66 1020.71 1020.50 1020.92 1021.04 1021.16 1021.33 1021.49 1021.59 1021.79 1021.85 1021.82 1021.84 1021.87
1009.33 1009.27 1009.67 1009.92 1009.99 1010.19 1010.13 1009.80 1008.42 1008.29 1007.73 1008.67 1008.82 1009.33 1009.39 1010.02 1010.68 1011.25 1011.87 1012.55 1013.19 1013.98 1014.87 1015.81 1016.28 1016.83 1017.53 1018.20 1018.79 1019.18 1019.57 1019.87 1020.06 1020.34 1020.45 1020.42 1020.37 1020.57 1020.64 1020.76 1020.89 1021.01 1021.13 1021.27 1021.52 1021.66 1021.59 1021.74 1021.59
1009.15 1008.87 1009.13 1008.97 1009.41 1009.08 1009.48 1009.21 1009.42 1008.86 1008.82 1009.20 1009.21 1009.26 1009.40 1009.70 1010.20 1010.86 1011.35 1012.02 1012.67 1013.63 1014.45 1015.19 1015.95 1016.53 1017.11 1017.70 1018.26 1018.68 1019.07 1019.48 1019.87 1019.99 1020.12 1020.13 1020.15 1020.25 1020.43 1020.49 1020.61 1020.75 1020.84 1020.85 1021.17 1021.30 1021.40 1021.47 1021.55
1009.14 1008.84 1008.87 1008.54 1009.11 1009.58 1009.47 1009.31 1009.69 1009.72 1009.67 1009.29 1009.64 1009.11 1009.02 1009.19 1009.78 1010.30 1010.92 1011.76 1012.50 1013.30 1014.12 1014.70 1015.34 1015.88 1016.38 1016.98 1017.57 1018.03 1018.50 1018.99 1019.37 1019.64 1019.73 1019.68 1019.84 1019.78 1019.92 1020.03 1020.27 1020.40 1020.51 1020.65 1020.88 1021.03 1020.98 1021.19 1021.21
Wind_Speed
6 5 1 1 1 1 4 4 5 14 11 8 12 6 6 5 2 7 8 7 12 11 8 10 8 9 10 11 11 11 12 13 11 12 12 13 13 13 12 12 12 12 11 11 10 11 12 12 13
5 3 1 0 2 5 4 2 12 13 11 15 10 13 4 5 4 10 8 9 11 10 9 9 9 10 11 11 11 10 11 11 12 12 12 12 12 12 12 13 14 14 12 11 10 11 12 14 16
3 3 1 2 1 4 3 5 12 13 18 6 5 7 4 4 9 10 9 12 11 10 8 9 11 11 12 11 11 11 10 10 11 10 12 11 12 13 13 13 15 14 15 14 13 13 13 15 17
2 1 1 4 4 5 4 9 17 20 9 5 13 9 6 6 8 6 14 13 11 10 8 10 12 11 12 11 11 11 10 10 9 11 11 12 11 12 13 12 13 14 12 13 13 10 13 16 15
1 2 3 3 7 5 8 8 11 14 6 8 1 7 10 4 10 15 13 11 11 10 8 8 10 11 11 11 12 11 10 9 10 10 9 11 11 11 13 12 12 12 11 12 14 14 14 14 13
1 0 4 4 3 4 9 6 6 6 8 9 12 14 7 8 14 12 12 11 10 9 8 8 9 12 11 11 11 11 9 8 9 9 11 11 11 12 12 11 11 10 10 11 12 13 13 12 12
2 2 3 4 4 4 4 4 6 8 10 7 12 10 6 11 12 12 11 10 9 8 8 7 8 10 11 10 12 10 9 10 8 10 12 11 12 12 11 10 10 9 9 10 10 11 11 8 9
2 2 4 4 2 4 5 4 11 7 5 10 11 7 11 13 13 12 11 10 9 8 8 7 6 8 7 8 10 9 10 10 10 10 12 13 12 10 10 4 8 9 8 8 8 8 8 7 9
2 2 5 6 6 2 1 2 5 7 12 4 3 12 15 18 15 13 12 9 8 7 7 6 7 6 5 6 8 8 11 11 9 11 11 7 6 7 7 10 7 8 7 6 7 7 8 8 10
1 2 5 5 5 2 2 1 6 7 7 5 13 15 17 18 16 15 13 11 11 9 7 6 6 7 6 6 7 6 7 6 6 6 6 4 5 6 7 7 8 7 6 5 4 4 5 2 3
2 3 7 8 11 10 5 2 2 12 4 8 22 20 18 16 14 14 13 11 10 9 7 7 7 6 5 5 5 3 4 4 5 6 4 4 4 4 4 3 4 3 5 3 1 2 2 5 3
0 7 6 10 8 9 4 6 4 9 2 16 17 21 18 17 16 15 14 12 11 10 9 8 7 6 5 4 4 4 4 4 4 4 4 3 3 4 4 4 4 3 3 4 3 3 4 4 5
2 6 5 12 9 11 9 4 5 2 11 16 16 17 17 15 14 12 11 10 10 11 10 9 8 7 6 5 4 4 4 3 3 3 4 3 4 4 3 3 3 3 3 4 4 5 6 6 7
6 10 8 9 12 8 12 3 6 2 14 16 18 17 15 15 15 12 11 11 11 11 10 10 9 8 6 5 6 5 3 3 2 2 3 4 3 3 3 2 3 3 3 4 4 5 6 6 7
6 8 10 8 11 7 9 0 8 3 14 17 17 15 14 13 12 12 12 11 11 10 10 11 10 8 7 7 6 4 3 3 3 3 2 2 3 3 4 3 4 4 3 3 3 4 5 6 5
2 2 2 4 4 4 9 10 12 6 15 19 17 14 14 14 13 12 11 10 11 10 10 10 9 9 9 7 5 3 3 3 2 2 2 2 1 3 3 3 4 4 3 2 2 3 4 4 4
3 3 5 5 6 5 6 7 13 9 18 18 17 16 15 14 15 13 13 12 11 11 10 11 9 10 10 7 4 4 4 3 2 1 0 2 3 2 3 4 3 3 3 3 2 3 2 3 3
7 6 6 8 6 6 5 2 2 7 10 16 17 15 15 15 17 14 13 12 12 11 10 10 8 8 8 6 4 3 2 2 3 2 2 3 2 3 1 2 2 2 3 4 3 4 4 4 4
7 10 10 5 2 6 6 2 10 13 6 13 15 16 16 17 14 13 13 12 13 12 12 11 9 7 7 6 6 5 4 4 3 3 4 3 1 3 1 0 1 3 4 5 3 4 4 4 3
6 8 6 4 3 3 5 7 9 8 12 9 15 17 18 15 13 13 14 13 13 13 13 10 9 9 8 6 6 4 5 3 3 3 2 4 3 2 1 1 2 4 3 5 4 2 2 3 4
5 4 8 5 7 6 0 4 5 10 10 7 10 18 19 18 17 15 16 15 13 14 14 12 11 10 8 7 6 5 5 3 4 4 4 4 3 3 2 2 2 3 2 4 4 4 2 3 3
7 6 9 10 5 4 2 4 5 9 15 14 13 15 19 19 17 14 16 16 15 14 13 13 12 11 9 9 8 10 8 6 5 5 3 3 4 3 2 3 2 2 2 4 3 4 4 0 1
1 10 9 6 5 4 2 3 1 7 12 18 19 13 20 19 18 19 18 18 16 13 13 13 12 12 10 9 8 8 7 6 5 4 6 4 4 4 3 2 1 2 0 2 3 3 4 3 2
14 13 8 3 2 2 2 1 5 7 19 19 17 16 20 20 19 18 14 13 14 12 13 13 14 13 11 10 10 11 11 9 7 7 6 5 4 4 4 4 3 2 1 1 1 1 2 2 3
6 11 2 2 2 1 4 4 10 8 11 15 23 24 19 18 17 16 17 16 15 16 15 13 14 14 14 12 10 10 11 10 10 10 8 7 6 5 6 7 5 3 3 2 1 2 1 2 2
13 7 4 4 4 3 4 5 3 5 8 13 17 25 13 17 16 18 20 18 17 17 16 15 15 14 14 13 11 9 9 7 7 9 7 7 6 6 6 6 6 6 5 4 3 3 3 2 2
7 8 3 4 2 2 4 5 3 3 14 7 12 19 20 18 19 20 19 18 16 16 17 17 16 15 15 14 11 10 8 8 8 8 8 7 7 6 7 8 8 7 6 5 4 4 5 4 4
7 10 5 3 5 4 2 4 5 9 11 7 11 16 22 20 20 19 18 18 18 17 16 15 15 16 15 14 11 10 10 10 9 7 8 8 8 8 7 8 8 8 8 7 7 6 6 5 5
6 6 4 3 2 2 3 4 3 8 12 6 7 14 18 21 19 15 18 18 17 15 15 15 14 14 15 14 13 11 11 10 9 8 8 8 7 8 9 9 9 9 9 9 8 7 6 7 6
2 1 6 7 7 1 3 2 4 5 6 2 8 10 13 18 20 18 19 17 17 16 15 16 15 15 15 14 13 13 11 10 10 10 9 8 8 8 9 8 7 8 9 10 10 9 7 9 8
Wind_Direction
183 163 175 214 141 102 84 94 111 132 153 157 151 137 112 55 31 96 123 130 127 119 119 123 108 109 107 101 100 98 97 95 96 94 91 83 81 83 85 85 85 84 84 86 93 93 82 85 95
160 151 248 162 61 129 83 59 140 148 141 134 98 120 102 77 74 120 125 139 128 118 123 121 113 112 106 106 106 98 98 98 95 88 87 85 86 82 84 84 83 81 83 80 87 93 92 88 91
192 223 25 26 74 89 95 121 130 128 135 127 104 63 63 77 121 128 124 134 125 115 113 120 125 121 115 113 115 110 102 101 99 90 88 95 92 87 83 90 98 91 85 76 78 89 93 89 87
164 138 360 58 70 56 85 112 123 130 122 64 116 77 83 103 127 131 136 132 130 125 123 121 129 125 123 117 112 110 106 105 97 93 90 80 87 82 88 91 90 91 94 105 101 94 82 79 79
143 139 63 36 67 86 94 107 135 140 106 113 122 103 106 63 114 131 135 136 132 126 126 126 128 122 120 125 119 114 113 108 99 91 84 81 70 81 87 83 90 92 83 75 72 74 94 86 78
80 72 115 156 90 97 72 63 102 102 112 113 107 116 96 123 135 136 137 135 135 129 125 121 131 132 132 127 122 119 113 104 94 87 80 90 89 88 86 88 92 90 87 78 73 75 93 86 85
95 53 64 99 108 83 22 2 115 120 129 109 128 114 111 142 138 138 138 135 132 123 117 112 116 130 129 128 122 118 117 103 101 100 94 97 86 84 87 94 95 96 88 83 78 79 84 89 104
80 73 110 25 189 133 7 57 112 112 90 109 138 154 157 156 147 141 138 140 136 133 124 114 112 118 133 135 130 125 115 109 109 104 86 77 83 85 80 92 100 102 101 96 86 83 80 76 123
65 76 147 144 151 257 311 118 54 117 127 89 136 151 132 143 149 143 146 154 144 135 134 136 126 114 112 128 132 134 110 103 91 83 72 78 79 82 83 79 96 97 95 88 83 86 88 79 117
184 78 155 124 124 147 205 69 112 142 119 94 109 111 137 149 160 157 165 167 168 153 150 148 145 130 113 121 111 108 82 85 85 88 87 96 80 68 70 64 63 61 50 44 43 67 103 141 108
123 47 128 137 153 180 163 202 189 151 144 177 148 141 154 161 166 170 172 174 172 161 164 168 155 142 134 118 119 115 115 109 106 93 78 72 84 72 49 64 49 41 42 32 27 77 75 77 79
310 82 110 137 139 145 92 311 121 164 205 158 154 150 158 170 173 178 176 177 173 169 167 163 160 148 146 124 134 123 116 115 108 90 69 66 61 51 35 42 58 42 23 20 37 70 74 93 100
189 87 85 150 157 148 124 53 0 148 134 146 149 157 168 175 178 183 181 175 173 174 172 171 165 165 156 154 138 128 119 108 96 86 59 58 44 37 44 53 17 12 8 48 50 66 65 78 87
92 98 91 150 155 153 141 62 36 159 144 148 162 169 173 185 183 176 182 175 180 177 175 170 174 171 166 163 148 133 138 120 111 97 79 67 37 28 30 40 29 18 31 51 47 53 69 77 84
131 112 102 79 151 129 89 229 210 197 167 160 172 177 181 194 185 189 185 179 178 179 171 173 175 175 173 169 158 150 149 150 136 102 67 66 6 21 16 30 16 25 36 80 76 90 87 92 96
109 136 116 31 167 123 172 209 236 241 196 172 178 183 190 198 203 191 190 186 178 177 178 174 175 173 173 167 170 162 143 130 115 93 4 333 19 31 37 19 28 13 34 58 106 112 91 94 74
43 81 58 106 32 121 197 128 219 223 209 183 182 188 195 197 207 202 194 188 182 184 178 181 180 177 176 170 168 171 140 156 119 94 77 79 91 72 23 22 26 17 29 44 79 122 71 92 74
123 116 67 89 16 69 49 193 223 202 245 192 189 192 200 203 208 199 199 190 186 185 187 184 187 182 178 155 157 155 143 127 126 148 155 114 105 107 71 34 22 42 48 53 72 96 75 56 31
106 112 109 110 135 74 3 284 211 214 188 226 203 198 204 207 203 194 196 189 182 184 186 186 183 183 181 174 181 171 175 158 161 163 158 159 169 184 190 175 27 46 51 39 111 111 83 56 38
128 121 108 130 153 117 39 303 206 195 196 219 217 207 213 205 198 197 191 192 187 184 190 182 191 181 184 182 181 184 168 177 162 156 168 199 185 196 223 325 49 41 68 58 69 109 122 74 35
190 212 175 138 145 96 112 319 207 199 206 248 258 219 216 208 205 197 195 196 190 187 186 186 185 189 187 177 157 128 126 125 164 179 182 188 190 190 199 196 45 56 31 69 45 42 40 118 56
215 199 169 135 139 49 345 296 233 174 203 227 256 224 218 214 216 204 198 197 199 189 186 189 190 193 195 185 186 170 178 177 189 183 169 173 197 214 231 173 117 67 35 67 55 49 28 355 165
125 143 144 136 96 137 68 285 186 188 207 218 232 239 223 213 211 205 204 199 200 188 190 189 195 201 193 196 209 188 188 185 171 165 168 181 188 204 214 191 191 158 209 102 58 57 51 58 31
135 111 92 74 54 129 135 18 262 187 215 217 225 223 225 216 208 213 205 197 196 191 191 187 190 204 201 198 204 200 190 180 174 177 182 186 195 196 195 194 224 227 248 228 124 32 75 73 76
183 180 142 160 198 286 147 153 248 216 210 207 204 218 214 213 204 199 196 194 194 191 192 192 191 198 198 201 204 206 198 189 193 189 192 187 192 204 196 198 204 205 220 253 261 243 270 319 358
188 225 185 212 185 181 180 239 310 355 219 211 210 202 197 207 204 199 200 197 200 195 191 193 192 197 198 203 203 206 212 205 204 203 205 205 206 204 207 210 210 207 206 209 238 250 267 271 280
173 219 100 114 154 223 198 223 302 260 250 196 199 190 195 203 204 204 202 202 200 199 199 196 194 197 196 202 206 206 208 215 209 206 202 209 220 220 213 218 220 216 215 209 216 241 247 258 261
236 155 177 220 200 227 218 272 265 183 256 165 198 202 202 205 206 207 204 203 200 204 199 200 201 200 198 197 202 209 210 213 213 208 214 222 226 225 222 222 225 226 214 210 209 216 221 236 249
163 186 215 265 256 250 167 234 346 283 309 240 198 192 214 211 204 197 202 202 202 198 198 197 198 201 201 199 201 203 208 213 218 218 220 225 226 227 228 222 227 230 219 212 217 226 232 233 236
309 251 229 242 194 234 321 263 331 318 334 332 163 199 208 209 203 197 200 199 196 197 195 197 195 200 204 204 201 205 203 204 216 221 222 224 227 218 221 236 233 236 231 226 219 225 237 234 240